Time,TemperatureF,DewpointF,PressureIn,WindDirection,WindDirectionDegrees,WindSpeedMPH,WindSpeedGustMPH,Humidity,HourlyPrecipIn,Conditions,Clouds,dailyrainin,SoftwareType,DateUTC
2013-03-20 00:03:00,40.0,8.0,-100.00,NW,326,11.0,23.0,26,0.00,,,-99.99,,2013-03-20 04:03:00,
2013-03-20 00:12:00,40.0,8.0,-100.00,NW,326,11.0,23.0,26,0.00,,,-99.99,,2013-03-20 04:12:00,
2013-03-20 00:23:00,39.0,7.0,-100.00,NNW,329,10.0,23.0,26,0.00,,,-99.99,,2013-03-20 04:23:00,
2013-03-20 00:32:00,39.0,7.0,-100.00,NNW,329,10.0,23.0,26,0.00,,,-99.99,,2013-03-20 04:32:00,
2013-03-20 00:43:00,39.0,7.0,-100.00,NNW,329,10.0,23.0,26,0.00,,,-99.99,,2013-03-20 04:43:00,
2013-03-20 00:53:00,39.0,7.0,-100.00,NNW,329,10.0,21.0,26,0.00,,,-99.99,,2013-03-20 04:53:00,
2013-03-20 01:03:00,38.0,7.0,-100.00,NW,326,9.0,19.0,27,0.00,,,-99.99,,2013-03-20 05:03:00,
2013-03-20 01:13:00,38.0,7.0,-100.00,NW,326,9.0,19.0,27,0.00,,,-99.99,,2013-03-20 05:13:00,
2013-03-20 01:23:00,38.0,6.0,-100.00,NNW,328,9.0,19.0,27,0.00,,,-99.99,,2013-03-20 05:23:00,
2013-03-20 01:32:00,37.0,8.0,-100.00,NW,322,12.0,24.0,28,0.00,,,-99.99,,2013-03-20 05:32:00,
2013-03-20 01:42:00,37.0,8.0,-100.00,NW,322,12.0,24.0,28,0.00,,,-99.99,,2013-03-20 05:42:00,
2013-03-20 01:53:00,37.0,8.0,-100.00,NW,325,11.0,22.0,29,0.00,,,-99.99,,2013-03-20 05:53:00,
2013-03-20 02:03:00,37.0,8.0,-100.00,NW,325,11.0,22.0,29,0.00,,,-99.99,,2013-03-20 06:03:00,
2013-03-20 02:13:00,37.0,8.0,-100.00,NW,325,11.0,22.0,29,0.00,,,-99.99,,2013-03-20 06:13:00,
2013-03-20 02:22:00,36.0,8.0,-100.00,NW,326,9.0,20.0,30,0.00,,,-99.99,,2013-03-20 06:22:00,
2013-03-20 02:32:00,36.0,9.0,-100.00,NW,325,7.0,16.0,32,0.00,,,-99.99,,2013-03-20 06:32:00,
2013-03-20 02:43:00,36.0,9.0,-100.00,NW,325,7.0,16.0,32,0.00,,,-99.99,,2013-03-20 06:43:00,
2013-03-20 02:53:00,36.0,8.0,-100.00,NNW,328,9.0,19.0,31,0.00,,,-99.99,,2013-03-20 06:53:00,
2013-03-20 03:02:00,35.0,8.0,-100.00,NNW,328,8.0,17.0,32,0.00,,,-99.99,,2013-03-20 07:02:00,
2013-03-20 03:12:00,35.0,8.0,-100.00,NNW,328,8.0,17.0,32,0.00,,,-99.99,,2013-03-20 07:12:00,
2013-03-20 03:22:00,35.0,9.0,-100.00,NW,326,8.0,17.0,33,0.00,,,-99.99,,2013-03-20 07:22:00,
2013-03-20 03:32:00,35.0,8.0,-100.00,NW,325,8.0,15.0,32,0.00,,,-99.99,,2013-03-20 07:32:00,
2013-03-20 03:42:00,35.0,8.0,-100.00,NW,325,8.0,15.0,32,0.00,,,-99.99,,2013-03-20 07:42:00,
2013-03-20 03:52:00,35.0,8.0,-100.00,NNW,329,7.0,15.0,32,0.00,,,-99.99,,2013-03-20 07:52:00,
2013-03-20 04:02:00,35.0,8.0,-100.00,NNW,332,6.0,11.0,33,0.00,,,-99.99,,2013-03-20 08:02:00,
2013-03-20 04:13:00,35.0,8.0,-100.00,NNW,332,6.0,11.0,33,0.00,,,-99.99,,2013-03-20 08:13:00,
2013-03-20 04:22:00,34.0,9.0,-100.00,NNW,329,7.0,12.0,34,0.00,,,-99.99,,2013-03-20 08:22:00,
2013-03-20 04:32:00,34.0,9.0,-100.00,NNW,332,6.0,15.0,34,0.00,,,-99.99,,2013-03-20 08:32:00,
2013-03-20 04:42:00,34.0,9.0,-100.00,NNW,332,6.0,15.0,34,0.00,,,-99.99,,2013-03-20 08:42:00,
2013-03-20 04:52:00,34.0,9.0,-100.00,NW,325,6.0,13.0,35,0.00,,,-99.99,,2013-03-20 08:52:00,
2013-03-20 05:02:00,34.0,8.0,-100.00,NNW,329,7.0,21.0,34,0.00,,,-99.99,,2013-03-20 09:02:00,
2013-03-20 05:12:00,34.0,8.0,-100.00,NNW,329,7.0,21.0,34,0.00,,,-99.99,,2013-03-20 09:12:00,
2013-03-20 05:22:00,33.0,9.0,-100.00,NNW,330,6.0,13.0,35,0.00,,,-99.99,,2013-03-20 09:22:00,
2013-03-20 05:33:00,33.0,9.0,-100.00,NNW,328,7.0,15.0,37,0.00,,,-99.99,,2013-03-20 09:33:00,
2013-03-20 05:43:00,33.0,9.0,-100.00,NNW,328,7.0,15.0,37,0.00,,,-99.99,,2013-03-20 09:43:00,
2013-03-20 05:53:00,33.0,9.0,-100.00,NNW,332,5.0,10.0,37,0.00,,,-99.99,,2013-03-20 09:53:00,
2013-03-20 06:03:00,33.0,9.0,-100.00,NNW,332,5.0,10.0,37,0.00,,,-99.99,,2013-03-20 10:03:00,
2013-03-20 06:13:00,33.0,9.0,-100.00,NNW,332,5.0,10.0,37,0.00,,,-99.99,,2013-03-20 10:13:00,
2013-03-20 06:23:00,33.0,10.0,-100.00,NNW,328,6.0,13.0,38,0.00,,,-99.99,,2013-03-20 10:23:00,
2013-03-20 06:33:00,32.0,10.0,-100.00,NW,322,5.0,10.0,39,0.00,,,-99.99,,2013-03-20 10:33:00,
2013-03-20 06:43:00,32.0,10.0,-100.00,NW,322,5.0,10.0,39,0.00,,,-99.99,,2013-03-20 10:43:00,
2013-03-20 06:53:00,32.0,10.0,-100.00,NW,325,6.0,12.0,39,0.00,,,-99.99,,2013-03-20 10:53:00,
2013-03-20 07:03:00,32.0,9.0,-100.00,NNW,328,5.0,10.0,38,0.00,,,-99.99,,2013-03-20 11:03:00,
2013-03-20 07:12:00,32.0,9.0,-100.00,NNW,328,5.0,10.0,38,0.00,,,-99.99,,2013-03-20 11:12:00,
2013-03-20 07:22:00,31.0,10.0,-100.00,NNW,329,4.0,8.0,40,0.00,,,-99.99,,2013-03-20 11:22:00,
2013-03-20 07:32:00,31.0,10.0,-100.00,NNW,336,4.0,9.0,41,0.00,,,-99.99,,2013-03-20 11:32:00,
2013-03-20 07:42:00,31.0,10.0,-100.00,NNW,336,4.0,9.0,41,0.00,,,-99.99,,2013-03-20 11:42:00,
2013-03-20 07:52:00,31.0,10.0,-100.00,NNW,330,5.0,10.0,41,0.00,,,-99.99,,2013-03-20 11:52:00,
2013-03-20 08:02:00,31.0,10.0,-100.00,NNW,330,5.0,8.0,40,0.00,,,-99.99,,2013-03-20 12:02:00,
2013-03-20 08:13:00,31.0,10.0,-100.00,NNW,330,5.0,8.0,40,0.00,,,-99.99,,2013-03-20 12:13:00,
2013-03-20 08:22:00,31.0,10.0,-100.00,NNW,333,4.0,8.0,41,0.00,,,-99.99,,2013-03-20 12:22:00,
2013-03-20 08:32:00,32.0,10.0,-100.00,NNW,333,4.0,8.0,39,0.00,,,-99.99,,2013-03-20 12:32:00,
2013-03-20 08:42:00,32.0,10.0,-100.00,NNW,333,4.0,8.0,39,0.00,,,-99.99,,2013-03-20 12:42:00,
2013-03-20 08:52:00,32.0,10.0,-100.00,NNW,340,3.0,8.0,40,0.00,,,-99.99,,2013-03-20 12:52:00,
2013-03-20 09:03:00,33.0,9.0,-100.00,NNW,339,3.0,6.0,35,0.00,,,-99.99,,2013-03-20 13:03:00,
2013-03-20 09:12:00,33.0,9.0,-100.00,NNW,339,3.0,6.0,35,0.00,,,-99.99,,2013-03-20 13:12:00,
2013-03-20 09:22:00,35.0,9.0,-100.00,NNW,343,3.0,7.0,33,0.00,,,-99.99,,2013-03-20 13:22:00,
2013-03-20 09:32:00,36.0,10.0,-100.00,NNW,340,3.0,6.0,32,0.00,,,-99.99,,2013-03-20 13:32:00,
2013-03-20 09:42:00,36.0,10.0,-100.00,NNW,340,3.0,6.0,32,0.00,,,-99.99,,2013-03-20 13:42:00,
2013-03-20 09:53:00,37.0,9.0,-100.00,NNW,332,5.0,13.0,30,0.00,,,-99.99,,2013-03-20 13:53:00,
2013-03-20 10:03:00,37.0,8.0,-100.00,NW,318,8.0,14.0,28,0.00,,,-99.99,,2013-03-20 14:03:00,
2013-03-20 10:12:00,37.0,8.0,-100.00,NW,318,8.0,14.0,28,0.00,,,-99.99,,2013-03-20 14:12:00,
2013-03-20 10:23:00,37.0,8.0,-100.00,NW,315,11.0,20.0,29,0.00,,,-99.99,,2013-03-20 14:23:00,
2013-03-20 10:34:00,38.0,8.0,-100.00,NW,320,10.0,20.0,28,0.00,,,0.00,,2013-03-20 14:34:00,
2013-03-20 10:42:00,38.0,8.0,-100.00,NW,320,10.0,20.0,28,0.00,,,0.00,,2013-03-20 14:42:00,
2013-03-20 10:53:00,39.0,9.0,-100.00,NW,323,8.0,17.0,28,0.00,,,0.00,,2013-03-20 14:53:00,
2013-03-20 11:03:00,39.0,9.0,-100.00,NW,319,9.0,21.0,28,0.00,,,0.00,,2013-03-20 15:03:00,
2013-03-20 11:13:00,39.0,9.0,-100.00,NW,319,9.0,21.0,28,0.00,,,0.00,,2013-03-20 15:13:00,
2013-03-20 11:22:00,41.0,10.0,-100.00,NW,313,10.0,20.0,28,0.00,,,0.00,,2013-03-20 15:22:00,
2013-03-20 11:33:00,41.0,12.0,-100.00,NW,322,12.0,21.0,30,0.00,,,0.00,,2013-03-20 15:33:00,
2013-03-20 11:43:00,41.0,12.0,-100.00,NW,322,12.0,21.0,30,0.00,,,0.00,,2013-03-20 15:43:00,
2013-03-20 11:53:00,43.0,11.0,-100.00,NNW,330,8.0,22.0,27,0.00,,,0.00,,2013-03-20 15:53:00,
2013-03-20 12:03:00,42.0,10.0,-100.00,NW,322,9.0,16.0,27,0.00,,,0.00,,2013-03-20 16:03:00,
2013-03-20 12:13:00,42.0,10.0,-100.00,NW,322,9.0,16.0,27,0.00,,,0.00,,2013-03-20 16:13:00,
2013-03-20 12:23:00,42.0,12.0,-100.00,NW,322,12.0,21.0,30,0.00,,,0.00,,2013-03-20 16:23:00,
2013-03-20 12:33:00,42.0,10.0,-100.00,NW,318,11.0,23.0,26,0.00,,,0.00,,2013-03-20 16:33:00,
2013-03-20 12:43:00,42.0,10.0,-100.00,NW,318,11.0,23.0,26,0.00,,,0.00,,2013-03-20 16:43:00,
2013-03-20 12:53:00,43.0,13.0,-100.00,NW,316,9.0,18.0,29,0.00,,,0.00,,2013-03-20 16:53:00,
2013-03-20 13:03:00,43.0,12.0,-100.00,NW,323,8.0,14.0,27,0.00,,,0.00,,2013-03-20 17:03:00,
2013-03-20 13:12:00,43.0,12.0,-100.00,NW,323,8.0,14.0,27,0.00,,,0.00,,2013-03-20 17:12:00,
2013-03-20 13:22:00,45.0,11.0,-100.00,NNW,329,8.0,18.0,26,0.00,,,0.00,,2013-03-20 17:22:00,
2013-03-20 13:32:00,45.0,10.0,-100.00,NW,312,9.0,22.0,24,0.00,,,0.00,,2013-03-20 17:32:00,
2013-03-20 13:42:00,45.0,10.0,-100.00,NW,312,9.0,22.0,24,0.00,,,0.00,,2013-03-20 17:42:00,
2013-03-20 13:53:00,45.0,9.0,-100.00,NW,325,9.0,19.0,23,0.00,,,0.00,,2013-03-20 17:53:00,
2013-03-20 14:02:00,44.0,9.0,-100.00,NNW,328,9.0,18.0,23,0.00,,,0.00,,2013-03-20 18:02:00,
2013-03-20 14:12:00,44.0,9.0,-100.00,NNW,328,9.0,18.0,23,0.00,,,0.00,,2013-03-20 18:12:00,
2013-03-20 14:22:00,45.0,8.0,-100.00,WNW,301,6.0,15.0,22,0.00,,,0.00,,2013-03-20 18:22:00,
2013-03-20 14:33:00,45.0,8.0,-100.00,WNW,284,6.0,13.0,21,0.00,,,0.00,,2013-03-20 18:33:00,
2013-03-20 14:43:00,45.0,8.0,-100.00,WNW,284,6.0,13.0,21,0.00,,,0.00,,2013-03-20 18:43:00,
2013-03-20 14:53:00,45.0,8.0,-100.00,WNW,284,6.0,13.0,21,0.00,,,0.00,,2013-03-20 18:53:00,
2013-03-20 15:02:00,48.0,11.0,-100.00,NW,304,8.0,17.0,22,0.00,,,0.00,,2013-03-20 19:02:00,
2013-03-20 15:12:00,48.0,11.0,-100.00,NW,304,8.0,17.0,22,0.00,,,0.00,,2013-03-20 19:12:00,
2013-03-20 15:23:00,47.0,10.0,-100.00,WNW,291,7.0,14.0,22,0.00,,,0.00,,2013-03-20 19:23:00,
2013-03-20 15:32:00,49.0,7.0,-100.00,West,264,6.0,12.0,18,0.00,,,0.00,,2013-03-20 19:32:00,
2013-03-20 15:42:00,49.0,7.0,-100.00,West,264,6.0,12.0,18,0.00,,,0.00,,2013-03-20 19:42:00,
2013-03-20 15:53:00,47.0,9.0,-100.00,WNW,295,5.0,13.0,20,0.00,,,0.00,,2013-03-20 19:53:00,
2013-03-20 16:02:00,48.0,8.0,-100.00,NW,323,8.0,17.0,19,0.00,,,0.00,,2013-03-20 20:02:00,
2013-03-20 16:13:00,48.0,8.0,-100.00,NW,323,8.0,17.0,19,0.00,,,0.00,,2013-03-20 20:13:00,
2013-03-20 16:22:00,47.0,8.0,-100.00,NNW,328,5.0,12.0,20,0.00,,,0.00,,2013-03-20 20:22:00,
2013-03-20 16:32:00,49.0,6.0,-100.00,West,265,7.0,19.0,17,0.00,,,0.00,,2013-03-20 20:32:00,
2013-03-20 16:42:00,49.0,6.0,-100.00,West,265,7.0,19.0,17,0.00,,,0.00,,2013-03-20 20:42:00,
2013-03-20 16:53:00,48.0,6.0,-100.00,NW,313,9.0,21.0,18,0.00,,,0.00,,2013-03-20 20:53:00,
2013-03-20 17:02:00,48.0,7.0,-100.00,NW,306,6.0,14.0,18,0.00,,,0.00,,2013-03-20 21:02:00,
2013-03-20 17:12:00,48.0,7.0,-100.00,NW,306,6.0,14.0,18,0.00,,,0.00,,2013-03-20 21:12:00,
2013-03-20 17:22:00,48.0,9.0,-100.00,WNW,301,6.0,14.0,21,0.00,,,0.00,,2013-03-20 21:22:00,
2013-03-20 17:33:00,48.0,8.0,-100.00,NNW,330,7.0,18.0,19,0.00,,,0.00,,2013-03-20 21:33:00,
2013-03-20 17:42:00,48.0,8.0,-100.00,NNW,330,7.0,18.0,19,0.00,,,0.00,,2013-03-20 21:42:00,
2013-03-20 17:53:00,48.0,7.0,-100.00,West,260,7.0,19.0,19,0.00,,,0.00,,2013-03-20 21:53:00,
2013-03-20 18:03:00,49.0,9.0,-100.00,SW,233,4.0,17.0,19,0.00,,,0.00,,2013-03-20 22:03:00,
2013-03-20 18:13:00,49.0,9.0,-100.00,SW,233,4.0,17.0,19,0.00,,,0.00,,2013-03-20 22:13:00,
2013-03-20 18:23:00,47.0,9.0,-100.00,NW,318,7.0,13.0,20,0.00,,,0.00,,2013-03-20 22:23:00,
2013-03-20 18:33:00,46.0,9.0,-100.00,NNW,333,7.0,16.0,21,0.00,,,0.00,,2013-03-20 22:33:00,
2013-03-20 18:42:00,46.0,9.0,-100.00,NNW,333,7.0,16.0,21,0.00,,,0.00,,2013-03-20 22:42:00,
2013-03-20 18:53:00,47.0,10.0,-100.00,NW,322,6.0,13.0,22,0.00,,,0.00,,2013-03-20 22:53:00,
2013-03-20 19:03:00,47.0,10.0,-100.00,NNW,333,7.0,15.0,22,0.00,,,0.00,,2013-03-20 23:03:00,
2013-03-20 19:12:00,47.0,10.0,-100.00,NNW,333,7.0,15.0,22,0.00,,,0.00,,2013-03-20 23:12:00,
2013-03-20 19:23:00,46.0,10.0,-100.00,NNW,332,4.0,13.0,23,0.00,,,0.00,,2013-03-20 23:23:00,
2013-03-20 19:32:00,45.0,12.0,-100.00,NW,326,4.0,8.0,26,0.00,,,0.00,,2013-03-20 23:32:00,
2013-03-20 19:43:00,45.0,12.0,-100.00,NW,326,4.0,8.0,26,0.00,,,0.00,,2013-03-20 23:43:00,
2013-03-20 19:53:00,45.0,13.0,-100.00,NNW,330,3.0,8.0,27,0.00,,,0.00,,2013-03-20 23:53:00,
2013-03-20 20:03:00,44.0,13.0,-100.00,NW,323,4.0,9.0,28,0.00,,,0.00,,2013-03-21 00:03:00,
2013-03-20 20:13:00,44.0,13.0,-100.00,NW,323,4.0,9.0,28,0.00,,,0.00,,2013-03-21 00:13:00,
2013-03-20 20:23:00,44.0,13.0,-100.00,NW,313,5.0,9.0,28,0.00,,,0.00,,2013-03-21 00:23:00,
2013-03-20 20:33:00,44.0,13.0,-100.00,NW,313,5.0,9.0,28,0.00,,,0.00,,2013-03-21 00:33:00,
2013-03-20 20:42:00,43.0,14.0,-100.00,NNW,335,3.0,7.0,30,0.00,,,0.00,,2013-03-21 00:42:00,
2013-03-20 20:53:00,43.0,15.0,-100.00,NNW,333,5.0,13.0,31,0.00,,,0.00,,2013-03-21 00:53:00,
2013-03-20 21:02:00,42.0,15.0,-100.00,NNW,333,4.0,8.0,33,0.00,,,0.00,,2013-03-21 01:02:00,
2013-03-20 21:12:00,42.0,15.0,-100.00,NNW,333,4.0,8.0,33,0.00,,,0.00,,2013-03-21 01:12:00,
2013-03-20 21:22:00,41.0,15.0,-100.00,NNW,332,3.0,6.0,35,0.00,,,0.00,,2013-03-21 01:22:00,
2013-03-20 21:33:00,41.0,17.0,-100.00,NW,312,2.0,5.0,37,0.00,,,0.00,,2013-03-21 01:33:00,
2013-03-20 21:42:00,41.0,17.0,-100.00,NW,312,2.0,5.0,37,0.00,,,0.00,,2013-03-21 01:42:00,
2013-03-20 21:53:00,40.0,18.0,-100.00,NW,326,5.0,9.0,40,0.00,,,0.00,,2013-03-21 01:53:00,
2013-03-20 22:02:00,40.0,18.0,-100.00,NW,326,5.0,9.0,40,0.00,,,0.00,,2013-03-21 02:02:00,
2013-03-20 22:13:00,40.0,18.0,-100.00,NW,326,5.0,9.0,40,0.00,,,0.00,,2013-03-21 02:13:00,
2013-03-20 22:23:00,40.0,20.0,-100.00,NW,326,7.0,17.0,44,0.00,,,0.00,,2013-03-21 02:23:00,
2013-03-20 22:33:00,40.0,22.0,-100.00,NNW,329,7.0,14.0,48,0.00,,,0.00,,2013-03-21 02:33:00,
2013-03-20 22:42:00,40.0,22.0,-100.00,NNW,329,7.0,14.0,48,0.00,,,0.00,,2013-03-21 02:42:00,
2013-03-20 22:52:00,40.0,22.0,-100.00,NNW,329,7.0,14.0,48,0.00,,,0.00,,2013-03-21 02:52:00,
2013-03-20 23:02:00,35.0,27.0,-100.00,NNW,328,10.0,19.0,72,0.00,,,0.00,,2013-03-21 03:02:00,
2013-03-20 23:12:00,35.0,27.0,-100.00,NNW,328,10.0,19.0,72,0.00,,,0.00,,2013-03-21 03:12:00,
2013-03-20 23:22:00,34.0,27.0,-100.00,NNW,328,11.0,22.0,74,0.00,,,0.00,,2013-03-21 03:22:00,
2013-03-20 23:33:00,33.0,26.0,-100.00,NW,326,10.0,19.0,73,0.00,,,0.00,,2013-03-21 03:33:00,
2013-03-20 23:43:00,33.0,26.0,-100.00,NW,326,10.0,19.0,73,0.00,,,0.00,,2013-03-21 03:43:00,
2013-03-20 23:53:00,33.0,26.0,-100.00,NNW,328,10.0,17.0,74,0.00,,,0.00,,2013-03-21 03:53:00,